Observations

BIA Manual Entry


Date Temp Humidity Rainfall Dew Point Wind Direction Wind Speed Wind Pressure Condition Visibility
2025-03-01 23:00:53 26 95 0.0 25 220 1.9 1010 Partly Cloudy (Night) 10 km
2025-03-01 22:01:05 26 96 0.0 25 200 1.9 1010 Partly Cloudy (Night) 10 km
2025-03-01 21:05:09 25 96 0.01 MM 25 120 1.9 1010 Night Shower 10 KM
2025-03-01 20:04:26 26 96 0.01 MM 25 040 3.8 1009 Night Shower 09 KM
2025-03-01 18:59:55 27 85 0.01 MM 25 010 9.5 1009 Thundershowers 10 KM
2025-03-01 18:01:16 28 79 0.0 24 010 13.3 1008 Thunderstorm 10 KM
2025-03-01 17:02:07 28 81 25 360 13.3 1007 Thunderstorm 10 km
2025-03-01 16:02:01 30 73 0.0 25 350 20.9 1007 Cloudy 15 KM
2025-03-01 15:02:05 31 71 25 350 19.0 1007 Cloudy 15 km
2025-03-01 14:01:49 30 75 25 340 24.7 1008 Distant showers 10 km
2025-03-01 12:59:48 30 77 0.0 25 340 17.1 1009 Distant showers 10 km
2025-03-01 12:02:07 30 74 0.0 25 330 11.4 1010 Light Haze 10 km
2025-03-01 11:02:47 30 70 0.0 25 010 3.8 1011 Light Haze 10 km
2025-03-01 09:59:39 29 79 25 130 5.7 1012 Partly Cloudy (Day) 10 KM
2025-03-01 08:59:51 29 81 25 350 7.6 1011 Partly Cloudy (Day) 10 KM
2025-03-01 08:07:44 28 86 0.00 36 010 7.6 1011 Partly Cloudy (Day) 10KM
2025-03-01 08:02:26 28 86 0.00 25 010 7.6 1011 Partly Cloudy (Day) 10KM
2025-03-01 07:04:17 27 88 0.00 25 050 9.5 10LM Showers 10KM
2025-03-01 06:00:43 27 87 0.00 25 030 5.7 101 Light Haze 08KM
2025-03-01 05:05:11 27 86 0.00 25 020 15.2 1009 Light Haze 08km
2025-03-01 04:03:09 27 86 0.00 25 030 15.2 1009 Light Haze 08km
2025-03-01 03:29:32 27 87 0.00 25 020 11.4 1009 Light Haze 10km
2025-03-01 02:02:02 27 86 0.0 25 360 19.0 1010 Light Haze 08 km
2025-03-01 02:01:30 27 86 0.0 25 360 19.0 1010 Partly Cloudy (Night) 08 km
2025-03-01 00:59:19 27 87 0.0 25 360 13.3 1011 Partly Cloudy (Night) 10 KM